Regional Weather Roundup
Issued by NWS

Home | Current Version | Previous Version | Graphics & Text | Print | Product List | Glossary On
Versions: 1 2 3 4 5 6 7 8 9 10 11 12 13 14 15 16 17 18 19 20 21 22 23 24 25 26 27 28 29 30 31 32 33 34 35 36 37 38 39 40 41 42 43 44 45 46 47 48 49 50
000
ASUS43 KOAX 231702
RWRNE

WEATHER ROUNDUP FOR NEBRASKA
NATIONAL WEATHER SERVICE OMAHA NE
1100 AM CST FRI FEB 23 2018

NOTES: SATELLITE DATA IS BEING USED TO AUGMENT CLOUD COVER ABOVE
       12000 FEET.
       "FAIR" INDICATES FEW OR NO CLOUDS BELOW 12,000 FEET WITH NO
       SIGNIFICANT WEATHER AND/OR OBSTRUCTIONS TO VISIBILITY.


NEZ001>004-019>022-054>056-231800-
NEBRASKA PANHANDLE

CITY           SKY/WX    TMP DP  RH WIND       PRES   REMARKS
SCOTTSBLUFF    MOSUNNY   19  11  70 NW3       30.14F
ALLIANCE       SUNNY     11   9  92 CALM      30.15R
CHADRON        SUNNY      8   2  76 W7        30.21S WCI  -3
GORDON         FAIR      11   8  85 NW3       30.16F
KIMBALL        MOSUNNY   18  11  74 CALM      30.09R
SIDNEY         SUNNY     23  12  62 NE5       30.12S WCI  17
$$

NEZ057>060-069>072-079>082-231800-
SOUTHWEST NEBRASKA

CITY           SKY/WX    TMP DP  RH WIND       PRES   REMARKS
NORTH PLATTE   MIX PCPN  20  12  71 N9        30.21S WCI   9
IMPERIAL       SUNNY     25  14  63 NE8       30.19R WCI  16
LEXINGTON      SUNNY     19  15  83 NE3       30.27R
MCCOOK         SUNNY     24  20  84 N5        30.24R WCI  18
OGALLALA       SUNNY     22  13  67 NE7       30.18S WCI  14
$$

NEZ005>010-023>029-035>040-094-231800-
NORTH CENTRAL NEBRASKA

CITY           SKY/WX    TMP DP  RH WIND       PRES   REMARKS
VALENTINE      SUNNY     13   4  67 NW8       30.23F WCI   2
AINSWORTH      SUNNY     13   9  81 NW10      30.22S WCI   0
BROKEN BOW     CLOUDY    19  15  84 N10       30.23R WCI   7
O`NEILL        CLOUDY    17  14  90 NW9       30.26R WCI   5
ORD            CLOUDY    20  17  88 NW10      30.25R WCI   9
THEDFORD       SUNNY     18  11  74 NW8       30.21S WCI   7
$$

NEZ041-046>049-061>064-073>077-083>087-231800-
SOUTH CENTRAL NEBRASKA

CITY           SKY/WX    TMP DP  RH WIND       PRES   REMARKS
GRAND ISLAND   CLOUDY    19  16  88 CALM      30.31R
AURORA         CLOUDY    18  17  93 N5        30.30S FOG     WCI  11
HASTINGS       SUNNY     25  20  81 VRB3      30.29R
HEBRON         SUNNY     28  24  84 N6        30.30F WCI  22
HOLDREGE       SUNNY     26  24  91 CALM      30.27R
KEARNEY        PTSUNNY   25  19  78 N6        30.29R WCI  18
YORK           SUNNY     21  21 100 N6        30.32R WCI  14
$$

NEZ011>018-030>034-042>045-231800-
NORTHEAST NEBRASKA

CITY           SKY/WX    TMP DP  RH WIND       PRES   REMARKS
NORFOLK        CLOUDY    21  18  88 N14       30.25S WCI   8
ALBION         CLOUDY    24  19  81 NW10      30.26S WCI  14
BLAIR          CLOUDY    25  22  87 W6        30.31R WCI  18
COLUMBUS       CLOUDY    28  21  75 NW8       30.32R WCI  20
FREMONT        CLOUDY    23  20  89 NW5       30.33R WCI  17
TEKAMAH        PTSUNNY   22  18  85 NW8       30.33R WCI  12
WAYNE          CLOUDY    21  20  96 NW13      30.27S WCI   9
$$

NEZ050>053-065>068-078-088>093-231800-
SOUTHEAST NEBRASKA

CITY           SKY/WX    TMP DP  RH WIND       PRES   REMARKS
LINCOLN        MOSUNNY   28  22  78 NW3       30.34R
OMAHA EPPLEY   MOSUNNY   27  21  78 N8        30.33R WCI  19
BEATRICE       SUNNY     29  24  81 CALM      30.31S
FALLS CITY     MOSUNNY   32  32 100 NW8       30.31S WCI  25
NEBRASKA CITY  MOSUNNY   29  27  93 NW3       30.32R
PLATTSMOUTH    SUNNY     28  24  86 CALM      30.32R
$$

NEZ044-045-051>053-067-231800-
OMAHA AREA

CITY           SKY/WX    TMP DP  RH WIND       PRES   REMARKS
OMAHA EPPLEY   MOSUNNY   27  21  78 N8        30.33R WCI  19
BLAIR          CLOUDY    25  22  87 W6        30.31R WCI  18
FREMONT        CLOUDY    23  20  89 NW5       30.33R WCI  17
MILLARD        MOSUNNY   28  23  79 N3        30.33R
OFFUTT AFB     MIX PCPN  28  23  80 CALM      30.32R
PLATTSMOUTH    SUNNY     28  24  86 CALM      30.32R
WAHOO          FAIR      24  20  82 N10       30.32R WCI  14
$$




USA.gov is the U.S. government's official web portal to all federal, state and local government web resources and services.